Terminal Aerodrome Forecast
Issued by NWS

Home | Current Version | Previous Version | Text Only | Print | Product List | Glossary On
Versions: 1 2 3 4 5 6 7 8 9 10 11 12 13 14 15 16 17 18 19 20 21 22 23 24
000
FTUS41 KPBZ 231100
TAFFKL
TAF
KFKL 231129Z 2312/2412 21005KT 6SM -RA BKN035
     FM231500 16007KT P6SM SCT040 BKN060
     FM240300 17009KT 6SM -RA BKN040
     FM240600 16012G20KT 5SM -RA OVC015
      AMD LTD TO CLD VIS AND WIND=

USA.gov is the U.S. government's official web portal to all federal, state and local government web resources and services.